QPF
0.01 0.01 0.02 0.02 0.01 0.02 0.03 0.03 0.02 0.03 0.04 0.06 0.06 0.05 0.04 0.03 0.03 0.04 0.06 0.06 0.05 0.07 0.08 0.08 0.07 0.07 0.06 0.05 0.05 0.05 0.05 0.05 0.05 0.04 0.03 0.04 0.03 0.03 0.02 0.02 0.02 0.02 0.02
0.02 0.02 0.01 0.01 0.02 0.03 0.04 0.04 0.03 0.04 0.05 0.06 0.06 0.06 0.04 0.04 0.03 0.04 0.06 0.08 0.11 0.11 0.11 0.11 0.10 0.10 0.08 0.08 0.07 0.06 0.06 0.05 0.04 0.03 0.04 0.05 0.05 0.03 0.03 0.03 0.02 0.02 0.02
0.03 0.03 0.02 0.01 0.02 0.03 0.04 0.06 0.05 0.07 0.07 0.07 0.07 0.06 0.04 0.04 0.04 0.04 0.05 0.06 0.08 0.10 0.12 0.13 0.13 0.12 0.11 0.11 0.09 0.08 0.07 0.06 0.05 0.04 0.04 0.05 0.05 0.05 0.04 0.02 0.02 0.02 0.01
0.02 0.03 0.04 0.03 0.03 0.04 0.05 0.05 0.04 0.04 0.05 0.03 0.03 0.04 0.04 0.04 0.04 0.03 0.04 0.04 0.05 0.07 0.10 0.12 0.13 0.12 0.13 0.13 0.11 0.10 0.09 0.09 0.07 0.05 0.05 0.05 0.05 0.05 0.05 0.03 0.02 0.03 0.02
0.02 0.02 0.04 0.04 0.03 0.03 0.04 0.04 0.05 0.06 0.04 0.03 0.03 0.05 0.04 0.03 0.03 0.03 0.03 0.03 0.04 0.04 0.03 0.04 0.06 0.06 0.07 0.09 0.08 0.09 0.10 0.10 0.10 0.09 0.07 0.06 0.05 0.06 0.06 0.05 0.04 0.03 0.03
0.03 0.02 0.02 0.02 0.03 0.02 0.02 0.04 0.07 0.06 0.04 0.05 0.05 0.05 0.03 0.03 0.04 0.05 0.04 0.04 0.04 0.04 0.04 0.04 0.04 0.04 0.05 0.07 0.06 0.07 0.07 0.07 0.08 0.10 0.12 0.10 0.07 0.07 0.06 0.05 0.04 0.04 0.04
0.03 0.02 0.02 0.02 0.02 0.02 0.01 0.02 0.05 0.05 0.04 0.05 0.04 0.03 0.03 0.02 0.02 0.05 0.05 0.05 0.05 0.06 0.06 0.06 0.05 0.04 0.03 0.03 0.04 0.05 0.06 0.07 0.07 0.08 0.10 0.11 0.09 0.07 0.06 0.05 0.04 0.04 0.04
0.02 0.02 0.03 0.02 0.03 0.02 0.01 0.01 0.04 0.05 0.05 0.05 0.04 0.04 0.03 0.02 0.03 0.03 0.05 0.05 0.05 0.05 0.05 0.04 0.04 0.05 0.04 0.04 0.04 0.03 0.04 0.06 0.08 0.09 0.08 0.09 0.08 0.08 0.07 0.07 0.06 0.05 0.06
0.02 0.02 0.03 0.04 0.04 0.03 0.02 0.03 0.05 0.05 0.05 0.05 0.05 0.05 0.03 0.03 0.03 0.03 0.03 0.03 0.02 0.02 0.03 0.02 0.02 0.03 0.03 0.04 0.04 0.03 0.03 0.04 0.05 0.07 0.09 0.07 0.07 0.09 0.11 0.12 0.09 0.07 0.07
0.02 0.02 0.02 0.04 0.05 0.05 0.06 0.06 0.04 0.04 0.03 0.03 0.03 0.03 0.04 0.03 0.03 0.03 0.03 0.02 0.01 0.01 0.02 0.02 0.01 0.01 0.01 0.02 0.03 0.04 0.04 0.04 0.05 0.09 0.13 0.14 0.11 0.12 0.15 0.16 0.11 0.08 0.07
0.02 0.02 0.03 0.05 0.06 0.06 0.07 0.06 0.05 0.06 0.04 0.03 0.03 0.03 0.03 0.03 0.03 0.03 0.03 0.03 0.02 0.01 0.01 0.01 0.01 0.01 0.01 0.01 0.02 0.03 0.05 0.06 0.11 0.18 0.21 0.22 0.18 0.17 0.17 0.13 0.11 0.09 0.07
0.02 0.03 0.03 0.05 0.07 0.07 0.04 0.03 0.04 0.06 0.05 0.04 0.03 0.04 0.03 0.03 0.05 0.06 0.04 0.02 0.02 0.02 0.01 0.01 0.01 0.01 0.01 0.01 0.02 0.03 0.04 0.04 0.06 0.09 0.11 0.15 0.17 0.17 0.15 0.11 0.10 0.09 0.07
0.03 0.03 0.04 0.06 0.06 0.06 0.06 0.05 0.04 0.04 0.06 0.06 0.05 0.04 0.04 0.03 0.04 0.05 0.05 0.03 0.02 0.02 0.01 0.01 0.01 0.01 0.01 0.01 0.01 0.03 0.03 0.04 0.04 0.05 0.07 0.10 0.12 0.11 0.11 0.11 0.10 0.09 0.07
0.02 0.02 0.03 0.04 0.05 0.05 0.05 0.05 0.04 0.03 0.04 0.05 0.05 0.04 0.04 0.03 0.04 0.05 0.06 0.05 0.03 0.01 0.01 0.01 0.01 0.02 0.02 0.02 0.02 0.02 0.02 0.03 0.04 0.04 0.05 0.08 0.08 0.07 0.07 0.05 0.05 0.05 0.05
0.02 0.02 0.03 0.05 0.05 0.04 0.03 0.04 0.04 0.04 0.04 0.05 0.05 0.05 0.04 0.04 0.04 0.05 0.07 0.07 0.05 0.03 0.02 0.02 0.03 0.03 0.03 0.02 0.02 0.02 0.02 0.03 0.04 0.06 0.06 0.08 0.06 0.04 0.04 0.05 0.04 0.03 0.03
0.02 0.03 0.04 0.04 0.04 0.03 0.04 0.04 0.04 0.05 0.07 0.06 0.07 0.06 0.05 0.05 0.04 0.05 0.07 0.06 0.06 0.05 0.03 0.03 0.02 0.03 0.03 0.03 0.03 0.02 0.02 0.03 0.04 0.05 0.06 0.08 0.06 0.04 0.03 0.03 0.03 0.02 0.01
0.02 0.02 0.03 0.02 0.02 0.04 0.05 0.04 0.03 0.04 0.05 0.06 0.07 0.07 0.06 0.05 0.05 0.06 0.05 0.04 0.04 0.04 0.03 0.03 0.03 0.02 0.02 0.02 0.02 0.02 0.03 0.03 0.05 0.05 0.05 0.04 0.03 0.03 0.02 0.01 0.02 0.02 0.01
0.02 0.03 0.03 0.03 0.03 0.04 0.06 0.05 0.05 0.04 0.05 0.05 0.06 0.06 0.05 0.05 0.06 0.06 0.05 0.03 0.03 0.03 0.03 0.03 0.02 0.02 0.02 0.01 0.01 0.02 0.02 0.02 0.03 0.05 0.04 0.03 0.02 0.02 0.02 0.01 0.01 0.02 0.02
0.03 0.04 0.04 0.04 0.04 0.05 0.05 0.04 0.05 0.05 0.05 0.06 0.06 0.06 0.05 0.06 0.05 0.04 0.03 0.03 0.02 0.02 0.02 0.02 0.01 0.01 0.01 0.01 0.01 0.01 0.01 0.01 0.02 0.02 0.02 0.03 0.02 0.01 0.01 0.01 0.01 0.01 0.01
0.04 0.04 0.05 0.04 0.03 0.03 0.03 0.04 0.05 0.05 0.06 0.07 0.07 0.07 0.06 0.05 0.05 0.06 0.05 0.04 0.04 0.03 0.02 0.02 0.01 0.01 0.01 0.01 0.02 0.02 0.02 0.02 0.01 0.01 0.01 0.01 0.01 0.01 0.01 0.01 0.01 0.01 0.01
0.03 0.03 0.03 0.03 0.03 0.03 0.03 0.04 0.04 0.04 0.06 0.08 0.09 0.09 0.09 0.08 0.08 0.08 0.08 0.06 0.06 0.04 0.03 0.02 0.02 0.02 0.01 0.01 0.02 0.02 0.02 0.01 0.01 0.01 0.01 0.01 0.01 0.01 0.01 0.00 0.01 0.01 0.01
0.02 0.02 0.02 0.02 0.03 0.03 0.04 0.06 0.04 0.04 0.06 0.08 0.09 0.10 0.09 0.06 0.05 0.05 0.05 0.06 0.06 0.06 0.04 0.03 0.03 0.02 0.02 0.02 0.02 0.02 0.02 0.01 0.02 0.01 0.01 0.01 0.01 0.01 0.01 0.01 0.01 0.01 0.01
0.02 0.02 0.02 0.02 0.03 0.02 0.03 0.05 0.06 0.05 0.05 0.04 0.03 0.03 0.03 0.02 0.03 0.02 0.03 0.04 0.05 0.06 0.06 0.05 0.04 0.03 0.02 0.02 0.03 0.02 0.02 0.01 0.02 0.02 0.02 0.01 0.01 0.01 0.02 0.01 0.01 0.01 0.01
0.02 0.02 0.02 0.02 0.02 0.02 0.04 0.05 0.06 0.05 0.04 0.02 0.02 0.03 0.03 0.02 0.02 0.02 0.02 0.03 0.03 0.04 0.05 0.06 0.07 0.07 0.07 0.06 0.04 0.04 0.03 0.02 0.02 0.02 0.02 0.02 0.01 0.02 0.02 0.02 0.02 0.02 0.01
0.02 0.02 0.01 0.02 0.02 0.03 0.03 0.03 0.04 0.04 0.03 0.03 0.03 0.04 0.03 0.03 0.03 0.04 0.03 0.03 0.02 0.02 0.04 0.05 0.06 0.07 0.08 0.07 0.07 0.06 0.04 0.03 0.03 0.02 0.03 0.02 0.02 0.03 0.02 0.02 0.02 0.02 0.01
0.03 0.03 0.02 0.03 0.02 0.02 0.02 0.02 0.04 0.03 0.04 0.05 0.05 0.04 0.04 0.03 0.03 0.04 0.03 0.03 0.02 0.02 0.03 0.03 0.04 0.05 0.05 0.04 0.05 0.05 0.04 0.04 0.03 0.03 0.03 0.03 0.03 0.03 0.03 0.03 0.03 0.04 0.03
MSLP
1015.91 1016.05 1016.15 1016.22 1016.30 1016.40 1016.55 1016.74 1016.97 1017.19 1017.40 1017.54 1017.63 1017.64 1017.60 1017.54 1017.47 1017.45 1017.48 1017.57 1017.72 1017.92 1018.14 1018.39 1018.63 1018.87 1019.10 1019.33 1019.55 1019.78 1020.00 1020.22 1020.43 1020.62 1020.80 1020.95 1021.09 1021.20 1021.29 1021.36 1021.41 1021.45 1021.47
1016.34 1016.44 1016.50 1016.54 1016.58 1016.65 1016.76 1016.90 1017.08 1017.26 1017.41 1017.52 1017.57 1017.55 1017.48 1017.39 1017.30 1017.24 1017.24 1017.30 1017.44 1017.63 1017.86 1018.12 1018.38 1018.64 1018.88 1019.11 1019.32 1019.53 1019.73 1019.92 1020.12 1020.30 1020.48 1020.65 1020.80 1020.93 1021.04 1021.11 1021.16 1021.19 1021.20
1016.70 1016.78 1016.83 1016.87 1016.90 1016.95 1017.03 1017.14 1017.26 1017.39 1017.49 1017.54 1017.54 1017.48 1017.38 1017.26 1017.14 1017.05 1017.02 1017.06 1017.17 1017.35 1017.58 1017.84 1018.12 1018.39 1018.65 1018.88 1019.09 1019.27 1019.45 1019.61 1019.78 1019.95 1020.13 1020.30 1020.46 1020.60 1020.72 1020.81 1020.87 1020.91 1020.92
1016.93 1017.02 1017.09 1017.14 1017.19 1017.25 1017.32 1017.39 1017.47 1017.54 1017.57 1017.57 1017.52 1017.43 1017.30 1017.15 1017.00 1016.89 1016.83 1016.84 1016.93 1017.08 1017.30 1017.56 1017.84 1018.12 1018.39 1018.62 1018.82 1018.99 1019.14 1019.27 1019.41 1019.56 1019.71 1019.88 1020.04 1020.20 1020.33 1020.44 1020.52 1020.57 1020.59
1016.97 1017.09 1017.19 1017.29 1017.38 1017.47 1017.54 1017.60 1017.64 1017.65 1017.64 1017.59 1017.50 1017.38 1017.22 1017.06 1016.90 1016.77 1016.68 1016.66 1016.71 1016.84 1017.03 1017.27 1017.54 1017.81 1018.07 1018.30 1018.49 1018.64 1018.77 1018.88 1018.99 1019.10 1019.24 1019.39 1019.55 1019.71 1019.85 1019.98 1020.08 1020.14 1020.19
1016.83 1016.97 1017.12 1017.28 1017.42 1017.54 1017.63 1017.69 1017.71 1017.70 1017.65 1017.57 1017.46 1017.33 1017.17 1017.01 1016.85 1016.70 1016.60 1016.54 1016.55 1016.62 1016.76 1016.96 1017.19 1017.44 1017.68 1017.90 1018.07 1018.21 1018.32 1018.40 1018.48 1018.57 1018.68 1018.81 1018.96 1019.12 1019.27 1019.41 1019.53 1019.62 1019.68
1016.52 1016.68 1016.88 1017.09 1017.28 1017.45 1017.57 1017.64 1017.66 1017.64 1017.59 1017.50 1017.40 1017.29 1017.15 1017.01 1016.86 1016.72 1016.59 1016.49 1016.44 1016.44 1016.51 1016.64 1016.81 1017.00 1017.21 1017.39 1017.55 1017.67 1017.76 1017.82 1017.88 1017.95 1018.04 1018.15 1018.28 1018.44 1018.59 1018.73 1018.86 1018.97 1019.06
1016.10 1016.27 1016.50 1016.74 1016.98 1017.19 1017.35 1017.45 1017.49 1017.48 1017.45 1017.39 1017.33 1017.25 1017.17 1017.07 1016.95 1016.81 1016.66 1016.51 1016.39 1016.31 1016.27 1016.30 1016.38 1016.50 1016.64 1016.79 1016.91 1017.01 1017.09 1017.14 1017.19 1017.24 1017.32 1017.42 1017.54 1017.68 1017.82 1017.97 1018.10 1018.22 1018.32
1015.65 1015.81 1016.03 1016.29 1016.56 1016.80 1016.98 1017.11 1017.19 1017.22 1017.22 1017.22 1017.22 1017.21 1017.19 1017.15 1017.07 1016.95 1016.78 1016.58 1016.38 1016.20 1016.05 1015.96 1015.93 1015.96 1016.02 1016.10 1016.19 1016.27 1016.33 1016.38 1016.42 1016.47 1016.54 1016.63 1016.74 1016.87 1017.00 1017.14 1017.26 1017.38 1017.49
1015.23 1015.34 1015.55 1015.80 1016.06 1016.31 1016.52 1016.67 1016.78 1016.85 1016.91 1016.97 1017.04 1017.11 1017.17 1017.20 1017.17 1017.06 1016.89 1016.65 1016.38 1016.10 1015.84 1015.63 1015.48 1015.40 1015.37 1015.39 1015.43 1015.48 1015.53 1015.58 1015.62 1015.68 1015.74 1015.83 1015.93 1016.04 1016.16 1016.28 1016.39 1016.50 1016.61
1014.86 1014.92 1015.08 1015.30 1015.54 1015.78 1015.98 1016.14 1016.27 1016.37 1016.48 1016.60 1016.74 1016.89 1017.03 1017.12 1017.14 1017.07 1016.90 1016.64 1016.31 1015.95 1015.60 1015.29 1015.04 1014.86 1014.75 1014.70 1014.69 1014.71 1014.74 1014.78 1014.83 1014.89 1014.95 1015.04 1015.13 1015.23 1015.33 1015.43 1015.52 1015.62 1015.72
1014.55 1014.55 1014.65 1014.81 1015.01 1015.21 1015.38 1015.53 1015.66 1015.78 1015.92 1016.08 1016.28 1016.49 1016.69 1016.84 1016.92 1016.88 1016.73 1016.47 1016.12 1015.73 1015.32 1014.94 1014.61 1014.36 1014.19 1014.08 1014.02 1014.01 1014.02 1014.05 1014.09 1014.14 1014.20 1014.27 1014.35 1014.44 1014.52 1014.60 1014.68 1014.75 1014.84
1014.28 1014.21 1014.24 1014.34 1014.48 1014.62 1014.75 1014.86 1014.97 1015.08 1015.22 1015.39 1015.61 1015.86 1016.10 1016.30 1016.42 1016.43 1016.32 1016.09 1015.76 1015.37 1014.96 1014.56 1014.21 1013.92 1013.70 1013.55 1013.46 1013.41 1013.39 1013.39 1013.41 1013.44 1013.49 1013.55 1013.61 1013.68 1013.74 1013.79 1013.85 1013.91 1013.99
1014.01 1013.89 1013.85 1013.88 1013.95 1014.03 1014.10 1014.16 1014.21 1014.29 1014.40 1014.56 1014.77 1015.02 1015.27 1015.50 1015.66 1015.71 1015.65 1015.48 1015.21 1014.87 1014.50 1014.13 1013.80 1013.51 1013.29 1013.12 1013.00 1012.91 1012.86 1012.82 1012.81 1012.80 1012.82 1012.85 1012.88 1012.92 1012.96 1013.00 1013.04 1013.09 1013.16
1013.73 1013.56 1013.48 1013.45 1013.45 1013.46 1013.46 1013.45 1013.45 1013.46 1013.52 1013.63 1013.80 1014.02 1014.26 1014.49 1014.67 1014.76 1014.76 1014.66 1014.47 1014.21 1013.92 1013.63 1013.36 1013.12 1012.91 1012.75 1012.61 1012.50 1012.40 1012.32 1012.25 1012.20 1012.17 1012.15 1012.15 1012.16 1012.18 1012.20 1012.23 1012.27 1012.34
1013.45 1013.25 1013.13 1013.06 1013.00 1012.95 1012.89 1012.82 1012.74 1012.69 1012.67 1012.72 1012.83 1012.99 1013.19 1013.38 1013.56 1013.67 1013.72 1013.68 1013.58 1013.42 1013.24 1013.04 1012.85 1012.68 1012.52 1012.38 1012.24 1012.11 1011.97 1011.84 1011.71 1011.60 1011.51 1011.44 1011.40 1011.38 1011.37 1011.37 1011.39 1011.44 1011.50
1013.20 1013.00 1012.86 1012.76 1012.67 1012.57 1012.46 1012.32 1012.18 1012.05 1011.97 1011.93 1011.96 1012.05 1012.17 1012.32 1012.46 1012.57 1012.63 1012.64 1012.60 1012.53 1012.44 1012.34 1012.24 1012.15 1012.05 1011.94 1011.82 1011.67 1011.51 1011.34 1011.16 1010.99 1010.84 1010.72 1010.63 1010.56 1010.53 1010.51 1010.53 1010.57 1010.64
1013.05 1012.86 1012.71 1012.60 1012.49 1012.36 1012.20 1012.02 1011.83 1011.63 1011.48 1011.36 1011.31 1011.31 1011.35 1011.42 1011.50 1011.56 1011.60 1011.61 1011.61 1011.59 1011.56 1011.53 1011.51 1011.48 1011.44 1011.37 1011.28 1011.14 1010.97 1010.77 1010.56 1010.34 1010.15 1009.98 1009.84 1009.74 1009.67 1009.64 1009.64 1009.67 1009.74
1013.05 1012.87 1012.74 1012.62 1012.50 1012.35 1012.16 1011.94 1011.70 1011.46 1011.24 1011.05 1010.92 1010.83 1010.78 1010.75 1010.74 1010.73 1010.71 1010.68 1010.65 1010.63 1010.62 1010.63 1010.65 1010.66 1010.67 1010.65 1010.58 1010.47 1010.31 1010.12 1009.89 1009.66 1009.44 1009.24 1009.07 1008.93 1008.83 1008.77 1008.74 1008.76 1008.81
1013.24 1013.08 1012.96 1012.84 1012.70 1012.53 1012.32 1012.07 1011.80 1011.51 1011.24 1010.99 1010.79 1010.61 1010.47 1010.35 1010.23 1010.11 1009.99 1009.88 1009.78 1009.71 1009.67 1009.66 1009.68 1009.71 1009.74 1009.76 1009.73 1009.66 1009.54 1009.37 1009.17 1008.95 1008.73 1008.52 1008.33 1008.17 1008.03 1007.94 1007.88 1007.85 1007.87
1013.62 1013.48 1013.36 1013.24 1013.08 1012.89 1012.65 1012.36 1012.05 1011.73 1011.41 1011.12 1010.85 1010.61 1010.38 1010.16 1009.93 1009.70 1009.46 1009.24 1009.03 1008.86 1008.74 1008.67 1008.65 1008.67 1008.70 1008.74 1008.75 1008.73 1008.66 1008.55 1008.40 1008.22 1008.02 1007.83 1007.64 1007.46 1007.30 1007.16 1007.05 1006.98 1006.96
1014.18 1014.05 1013.92 1013.77 1013.59 1013.36 1013.07 1012.75 1012.39 1012.03 1011.68 1011.35 1011.03 1010.73 1010.43 1010.12 1009.80 1009.45 1009.09 1008.74 1008.41 1008.12 1007.89 1007.73 1007.63 1007.60 1007.62 1007.65 1007.69 1007.72 1007.71 1007.66 1007.58 1007.46 1007.32 1007.16 1006.98 1006.80 1006.62 1006.44 1006.29 1006.16 1006.07
1014.86 1014.73 1014.59 1014.41 1014.17 1013.89 1013.55 1013.16 1012.76 1012.36 1011.97 1011.60 1011.24 1010.90 1010.55 1010.18 1009.77 1009.33 1008.87 1008.40 1007.95 1007.53 1007.18 1006.91 1006.72 1006.62 1006.58 1006.59 1006.63 1006.68 1006.72 1006.74 1006.72 1006.68 1006.60 1006.48 1006.34 1006.16 1005.97 1005.77 1005.56 1005.37 1005.22
1015.62 1015.48 1015.30 1015.08 1014.79 1014.43 1014.03 1013.58 1013.12 1012.67 1012.24 1011.83 1011.45 1011.07 1010.69 1010.28 1009.83 1009.33 1008.79 1008.23 1007.67 1007.15 1006.68 1006.29 1005.99 1005.79 1005.68 1005.63 1005.64 1005.68 1005.74 1005.79 1005.82 1005.84 1005.81 1005.75 1005.64 1005.50 1005.31 1005.09 1004.85 1004.61 1004.40
1016.38 1016.23 1016.03 1015.75 1015.40 1014.98 1014.50 1013.99 1013.47 1012.96 1012.49 1012.05 1011.65 1011.25 1010.85 1010.42 1009.95 1009.42 1008.84 1008.23 1007.60 1006.99 1006.43 1005.93 1005.53 1005.21 1004.99 1004.85 1004.78 1004.77 1004.79 1004.83 1004.88 1004.92 1004.93 1004.91 1004.85 1004.74 1004.57 1004.36 1004.11 1003.85 1003.60
1017.10 1016.95 1016.72 1016.41 1016.01 1015.53 1014.99 1014.42 1013.85 1013.29 1012.78 1012.31 1011.89 1011.48 1011.07 1010.65 1010.17 1009.64 1009.05 1008.42 1007.76 1007.10 1006.46 1005.87 1005.35 1004.91 1004.56 1004.29 1004.09 1003.97 1003.91 1003.89 1003.90 1003.93 1003.95 1003.96 1003.93 1003.86 1003.74 1003.55 1003.33 1003.07 1002.80
Thickness
5758 5758 5757 5757 5757 5757 5757 5757 5757 5757 5756 5755 5755 5755 5755 5754 5753 5753 5754 5754 5754 5753 5752 5751 5749 5747 5745 5744 5742 5741 5739 5737 5735 5734 5732 5730 5728 5727 5725 5723 5722 5721 5719
5758 5757 5756 5756 5755 5755 5755 5755 5755 5755 5755 5754 5754 5755 5754 5754 5753 5753 5753 5753 5753 5753 5751 5750 5749 5747 5746 5744 5742 5741 5739 5737 5735 5734 5732 5730 5728 5726 5725 5723 5722 5720 5719
5757 5756 5756 5755 5754 5754 5754 5754 5754 5754 5753 5753 5753 5754 5753 5753 5753 5752 5752 5752 5752 5751 5750 5749 5748 5747 5746 5744 5743 5741 5739 5738 5736 5734 5732 5730 5728 5726 5724 5722 5721 5719 5718
5757 5756 5755 5754 5754 5753 5753 5753 5753 5752 5751 5751 5751 5752 5752 5752 5752 5751 5751 5750 5750 5750 5749 5748 5747 5747 5745 5744 5743 5741 5740 5738 5736 5734 5732 5730 5728 5726 5724 5722 5720 5719 5717
5757 5755 5754 5753 5753 5752 5752 5752 5751 5750 5749 5749 5749 5750 5750 5750 5751 5751 5750 5749 5749 5748 5748 5747 5747 5746 5745 5744 5742 5741 5739 5738 5736 5734 5733 5731 5728 5726 5724 5722 5720 5719 5717
5756 5755 5753 5752 5752 5751 5750 5750 5749 5749 5748 5747 5749 5748 5749 5749 5750 5749 5749 5748 5748 5747 5747 5746 5745 5745 5744 5743 5742 5741 5739 5738 5736 5735 5733 5731 5728 5726 5724 5722 5720 5719 5717
5755 5754 5753 5751 5751 5750 5749 5749 5747 5746 5746 5746 5744 5743 5745 5747 5747 5747 5747 5746 5746 5746 5746 5745 5744 5743 5743 5742 5741 5740 5739 5738 5736 5735 5733 5730 5728 5726 5724 5722 5720 5719 5717
5755 5754 5752 5751 5750 5748 5747 5747 5745 5743 5743 5744 5741 5737 5735 5739 5743 5746 5745 5744 5744 5744 5744 5743 5742 5742 5741 5741 5740 5739 5738 5737 5736 5734 5732 5730 5728 5726 5724 5722 5720 5718 5717
5754 5753 5752 5751 5749 5748 5746 5745 5744 5742 5739 5740 5740 5736 5731 5730 5734 5739 5741 5741 5741 5741 5741 5741 5741 5740 5739 5739 5738 5738 5737 5736 5734 5733 5731 5729 5727 5725 5724 5721 5719 5718 5716
5754 5753 5752 5751 5749 5748 5746 5745 5744 5742 5739 5736 5737 5737 5735 5734 5730 5730 5735 5737 5737 5737 5738 5738 5738 5738 5737 5736 5736 5736 5735 5734 5732 5731 5729 5728 5727 5724 5722 5720 5718 5717 5715
5752 5752 5752 5751 5749 5748 5746 5745 5743 5742 5740 5737 5735 5734 5732 5732 5731 5727 5726 5730 5732 5734 5734 5735 5735 5735 5734 5733 5733 5732 5732 5731 5730 5729 5727 5726 5724 5722 5720 5719 5717 5715 5713
5751 5751 5751 5750 5749 5747 5746 5744 5743 5741 5740 5738 5736 5734 5732 5730 5728 5726 5724 5725 5726 5729 5731 5732 5732 5732 5731 5730 5730 5729 5728 5727 5727 5726 5724 5723 5721 5719 5717 5716 5714 5712 5711
5748 5749 5749 5748 5747 5746 5745 5744 5742 5741 5739 5737 5736 5735 5734 5733 5731 5728 5724 5722 5721 5724 5726 5728 5729 5728 5728 5727 5726 5726 5725 5724 5723 5722 5721 5719 5718 5716 5714 5713 5711 5709 5708
5748 5748 5747 5747 5746 5745 5744 5743 5742 5740 5739 5737 5736 5734 5733 5732 5731 5729 5725 5721 5718 5718 5720 5722 5725 5725 5724 5723 5723 5722 5721 5720 5720 5718 5717 5716 5715 5713 5711 5710 5708 5706 5705
5746 5746 5745 5745 5744 5743 5742 5741 5739 5738 5737 5736 5735 5733 5732 5731 5730 5728 5725 5722 5717 5713 5714 5717 5719 5721 5720 5719 5719 5718 5717 5716 5715 5714 5713 5712 5711 5709 5707 5706 5704 5703 5701
5743 5743 5742 5742 5741 5740 5739 5738 5737 5736 5735 5734 5733 5731 5730 5729 5727 5726 5723 5721 5719 5715 5711 5714 5715 5716 5716 5715 5714 5713 5712 5712 5711 5710 5709 5708 5707 5705 5703 5702 5700 5699 5697
5740 5739 5739 5738 5737 5736 5735 5734 5734 5733 5731 5731 5730 5728 5727 5727 5725 5723 5720 5719 5716 5714 5710 5711 5711 5711 5711 5710 5709 5709 5708 5707 5706 5705 5704 5703 5702 5701 5699 5698 5696 5695 5694
5737 5736 5735 5734 5734 5733 5732 5730 5730 5729 5728 5727 5726 5725 5724 5723 5721 5719 5717 5715 5713 5712 5709 5706 5706 5706 5705 5705 5704 5703 5703 5702 5701 5701 5699 5698 5697 5696 5694 5694 5693 5691 5690
5733 5732 5731 5731 5730 5730 5728 5728 5726 5725 5724 5724 5723 5722 5721 5719 5717 5716 5714 5712 5711 5709 5707 5704 5702 5701 5700 5699 5698 5697 5697 5696 5696 5695 5694 5693 5692 5691 5690 5689 5688 5687 5686
5729 5728 5727 5727 5727 5726 5725 5724 5723 5722 5721 5721 5720 5719 5718 5716 5714 5712 5710 5708 5707 5704 5702 5700 5697 5696 5694 5693 5692 5691 5689 5689 5689 5689 5688 5688 5687 5686 5685 5684 5683 5682 5681
5726 5724 5723 5723 5722 5722 5721 5720 5719 5718 5717 5716 5715 5715 5714 5713 5712 5710 5708 5705 5703 5700 5697 5694 5692 5690 5688 5686 5686 5686 5684 5683 5682 5682 5682 5681 5681 5680 5679 5678 5678 5677 5676
5721 5720 5719 5718 5717 5717 5716 5715 5714 5713 5712 5711 5710 5710 5710 5709 5708 5706 5705 5703 5700 5697 5693 5690 5688 5686 5685 5683 5682 5681 5678 5677 5675 5676 5675 5674 5674 5673 5673 5673 5673 5672 5670
5716 5714 5714 5713 5711 5710 5711 5710 5709 5708 5707 5706 5705 5704 5704 5704 5702 5700 5699 5697 5695 5694 5692 5689 5685 5683 5681 5680 5677 5675 5673 5672 5671 5670 5668 5668 5667 5666 5666 5666 5665 5664 5663
5709 5708 5707 5707 5705 5705 5705 5705 5704 5702 5701 5701 5700 5699 5697 5696 5696 5694 5692 5691 5689 5688 5686 5685 5683 5681 5679 5676 5674 5672 5669 5666 5664 5662 5662 5661 5661 5660 5660 5659 5659 5657 5656
5703 5702 5701 5700 5699 5699 5699 5699 5697 5695 5694 5694 5693 5692 5691 5690 5689 5687 5686 5684 5682 5681 5680 5679 5677 5675 5673 5670 5668 5665 5661 5659 5657 5655 5654 5654 5654 5652 5652 5652 5652 5650 5649
5697 5696 5694 5694 5693 5693 5693 5692 5691 5689 5687 5686 5685 5685 5684 5683 5682 5681 5679 5677 5674 5673 5672 5671 5668 5666 5665 5663 5661 5659 5657 5653 5651 5649 5649 5646 5646 5644 5644 5646 5644 5643 5641